Regional Weather Roundup
Issued by NWS

Home | Current Version | Previous Version | Text Only | Print | Product List | Glossary Off
Versions: 1 2 3 4 5 6 7 8 9 10 11 12 13 14 15 16 17 18 19 20 21 22 23 24 25 26 27 28 29 30 31 32 33 34 35 36 37 38 39 40 41 42 43 44 45 46 47 48 49 50

000
ASUS43 KDMX 230507
RWRIA

WEATHER ROUNDUP FOR IOWA
NATIONAL WEATHER SERVICE DES MOINES IA
1200 AM CDT SAT AUG 23 2014

NOTE: "FAIR" INDICATES FEW OR NO CLOUDS BELOW 12,000 FEET WITH NO
SIGNIFICANT WEATHER AND/OR OBSTRUCTIONS TO VISIBILITY.

* - THESE STATIONS ARE NOT NWS STATIONS...THUS NOT UNDER NWS
QUALITY CONTROL.  THEY ALSO DO NOT REPORT WEATHER SUCH
AS PRECIPITATION OR FOG.

IAZ001>003-012>014-020>022-031>034-043>046-230600-
   NORTHWEST IOWA

CITY           SKY/WX    TMP DP  RH WIND       PRES   REMARKS
CARROLL *      MOCLDY    72  70  94 N6        29.96S
CHEROKEE *     CLOUDY    75  73  94 NE5       29.97F
DENISON *      CLEAR     72  72 100 NE6       29.94F
LE MARS *      CLEAR     75  72  88 NE9       29.96F
ORANGE CITY *  PTCLDY    75  70  83 NE6       29.98F
SHELDON *      MOCLDY    72  70  94 NE3       29.98S
SIOUX CITY     CLOUDY    77  71  82 CALM      29.94F
SPENCER        CLOUDY    73  69  87 NE8       30.00R
STORM LAKE *   CLEAR     75  75 100 NE9       29.98F
$$

IAZ055>058-069>071-079>083-090>094-230600-
   SOUTHWEST IOWA

CITY           SKY/WX    TMP DP  RH WIND       PRES   REMARKS
ATLANTIC *     MOCLDY    72  72 100 CALM      29.93F
AUDUBON *      CLEAR     73  72  94 N3        29.96S
CLARINDA *     PTCLDY    73  72  94 CALM      29.94S
COUNCIL BLFS * CLEAR     73  73 100 E10       29.91F
CRESTON *      CLEAR     73  72  94 E6        29.95F
HARLAN  *      CLEAR     73  72  94 CALM      29.97F
LAMONI         PTCLDY    78  75  90 SE5       29.95R HX  81
RED OAK *      PTCLDY    73  72  94 NE5       29.92F
SHENANDOAH *   PTCLDY    73  72  94 N3        29.92S
$$

IAZ047>049-059>061-072>074-084-230600-
   CENTRAL IOWA

CITY           SKY/WX    TMP DP  RH WIND       PRES   REMARKS
AMES           CLOUDY    77  75  93 NW3       29.95R FOG
ANKENY *       CLEAR     75  75 100 CALM      29.94R
CHARITON *     PTCLDY    75  75 100 CALM      29.95R FOG
DES MOINES     CLOUDY    78  74  87 CALM      29.93R HX  81
GRINNELL*      MOCLDY    75  73  94 E3        29.95S
KNOXVILLE *    CLEAR     77  75  94 SE3       29.93R FOG
MARSHALLTOWN   TSTM      75  72  90 E14       29.95S
PELLA *          N/A     77  76  97 CALM      29.94S FOG
PERRY *          N/A     75  75 100 NE6       29.94S FOG
$$

IAZ004>006-015-016-023>025-035-036-230600-
   NORTH CENTRAL IOWA

CITY           SKY/WX    TMP DP  RH WIND       PRES   REMARKS
ALGONA *       CLOUDY    75  72  88 NE7       30.00R
CLARION *      MOCLDY    75  73  94 NE5       29.98S
ESTHERVILLE    CLOUDY    71  69  93 E5        30.00R
FORT DODGE *   CLOUDY    72  70  94 CALM      29.98F
MASON CITY     CLOUDY    73  71  93 NE7       30.01R
FOREST CITY *  MOCLDY    73  72  94 NE6       30.01R
IOWA FALLS *   CLOUDY    75  73  94 CALM      29.99R
$$

IAZ007>011-017>019-026>030-037>042-050>054-066-230600-
   NORTHEAST IOWA

CITY           SKY/WX    TMP DP  RH WIND       PRES   REMARKS
CEDAR RAPIDS   MOCLDY    75  74  96 E3        29.93F
CHARLES CITY * PTCLDY    73  72  94 NE6       29.99R
CLINTON *      PTCLDY    73  72  94 E3        29.98S
DECORAH *      MOCLDY    75  72  88 N3        29.98S
DUBUQUE        CLOUDY    75  74  96 SW5       29.97S
MONTICELLO *   PTCLDY    73  73 100 E3        29.95S
OELWEIN *      PTCLDY    73  70  88 NE5       29.96F
WATERLOO       CLOUDY    75  71  87 CALM      29.94F
$$

IAZ064-065-067-068-078-230600-
   EAST CENTRAL IOWA

CITY           SKY/WX    TMP DP  RH WIND       PRES   REMARKS
DAVENPORT      PTCLDY    73  71  93 NE3       29.96S
IOWA CITY      MOCLDY    77  76  96 CALM      29.95S
MT. PLEASANT * PTCLDY    77  75  94 E5        29.94F FOG
MUSCATINE *    PTCLDY    75  73  94 CALM      29.94F
QUAD CITIES    CLEAR     74  72  93 CALM      29.94F
$$

IAZ062-063-075>077-085>089-095>099-230600-
   SOUTHEAST IOWA

CITY           SKY/WX    TMP DP  RH WIND       PRES   REMARKS
BURLINGTON     MOCLDY    80  78  94 E6        29.94F HX  88
FAIRFIELD *    CLEAR     77  75  94 SE5       29.95F
FORT MADISON * CLEAR     79  77  94 CALM      29.96S HX  83
KEOKUK *       CLEAR     77  77 100 CALM      29.94S FOG
OSKALOOSA *      N/A     77  75  94 SE6       29.93F FOG
CENTERVILLE *  CLEAR     75  75 100 SE5       29.97R
OTTUMWA        CLEAR     76  75  97 SE6       29.93F FOG
WASHINGTON *   CLEAR     75  75 100 CALM      29.95F FOG
$$

ABBREVIATIONS USED IN REMARKS
   TC - TEMPERATURES IN CELSIUS
  WCI - WIND CHILL INDEX
   HX - HEAT INDEX
  VSB - VISIBILITY
$$




USA.gov is the U.S. government's official web portal to all federal, state and local government web resources and services.